Weather History for Laramie, WY

Change the Weather History Date:

Friday, May 3, 2013

  Actual Average Record
Temperature  
Mean Temperature 38 °F 43 °F  
Max Temperature 56 °F 57 °F 77 °F (1952)
Min Temperature 20 °F 30 °F 9 °F (2008)
Degree Days  
Heating Degree Days 27 22  
Month to date heating degree days 113 66  
Since 1 July heating degree days 8053 8115  
Cooling Degree Days 0 0  
Month to date cooling degree days 0 0  
Year to date cooling degree days 0 0  
Moisture  
Dew Point 19 °F    
Average Humidity 52    
Maximum Humidity 84    
Minimum Humidity 19    
Precipitation  
Precipitation 0.00 in 0.04 in 0.78 in (1981)
Month to date precipitation 0.05 0.13  
Year to date precipitation 1.93 2.39  
Sea Level Pressure  
Sea Level Pressure 30.17 in    
Wind  
Wind Speed 9 mph (SE)    
Max Wind Speed 22 mph    
Max Gust Speed 26 mph    
Visibility 10 miles    
Events      
T = Trace of Precipitation, MM = Missing Value Source: NWS Daily Summary

Daily Weather History Graph

Daily Weather History Graph

Search for Another Location

Airport:

Trip Planner

Search our weather history database for the weather conditions in past years. The results will help you decide how hot, cold, wet, or windy it might be!

Date:

Astronomy

May. 03, 2013 Rise Set
Actual Time 5:57 AM MDT 8:02 PM MDT
Civil Twilight 5:26 AM MDT 8:32 PM MDT
Nautical Twilight 4:49 AM MDT 9:10 PM MDT
Astronomical Twilight 4:09 AM MDT 9:50 PM MDT
Moon 2:27 AM MDT (5/3) 1:56 PM MDT (5/3)
Length of Visible Light 15h 06m
Length of Day
14h 05m
Last Quarter, 36% of the Moon is Illuminated
May 3
Last Quarter
May 9
New
May 17
First Quarter
May 24
Full
May 31
Last Quarter

Hourly Weather History & Observations

Time (MDT) Temp. Windchill Dew Point Humidity Pressure Visibility Wind Dir Wind Speed Gust Speed Precip Events Conditions
12:53 AM 23.0 °F - 15.1 °F 72% 30.46 in - Calm Calm - N/A   Clear
1:53 AM 24.1 °F 17.0 °F 16.0 °F 71% 30.41 in - SSW 5.8 mph - N/A   Clear
2:53 AM 19.9 °F 13.4 °F 15.1 °F 81% 30.40 in - SSE 4.6 mph - N/A   Clear
3:53 AM 21.9 °F 15.7 °F 15.1 °F 75% 30.35 in - SE 4.6 mph - N/A   Clear
4:53 AM 21.9 °F 17.2 °F 15.1 °F 75% 30.32 in - South 3.5 mph - N/A   Clear
5:53 AM 19.9 °F 9.3 °F 15.1 °F 81% 30.32 in - SE 9.2 mph - N/A   Clear
6:53 AM 25.0 °F 15.5 °F 17.1 °F 72% 30.29 in - SE 9.2 mph - N/A   Clear
7:53 AM 30.9 °F 22.8 °F 19.9 °F 64% 30.26 in - SE 9.2 mph - N/A   Clear
8:53 AM 37.0 °F 31.0 °F 19.9 °F 50% 30.23 in - SE 8.1 mph - N/A   Clear
9:53 AM 42.1 °F 38.4 °F 19.9 °F 41% 30.21 in - ESE 5.8 mph - N/A   Clear
10:53 AM 46.9 °F - 18.0 °F 32% 30.16 in 10.0 mi Variable 6.9 mph - N/A   Clear
11:53 AM 51.1 °F - 14.0 °F 23% 30.13 in 10.0 mi North 13.8 mph 20.7 mph N/A   Clear
12:53 PM 53.1 °F - 14.0 °F 21% 30.11 in 10.0 mi NNW 9.2 mph 23.0 mph N/A   Clear
1:53 PM 55.0 °F - 14.0 °F 20% 30.07 in 10.0 mi NNW 16.1 mph 21.9 mph N/A   Clear
3:53 PM 54.0 °F - 14.0 °F 21% 30.04 in 10.0 mi WNW 6.9 mph - N/A   Clear
4:53 PM 55.0 °F - 14.0 °F 20% 30.01 in 10.0 mi NNW 6.9 mph 18.4 mph N/A   Clear
5:23 PM 51.8 °F - 24.8 °F 35% 30.10 in 10.0 mi East 15.0 mph - N/A   Clear
5:53 PM 50.0 °F - 24.1 °F 36% 30.07 in 10.0 mi ESE 12.7 mph - N/A   Clear
6:53 PM 48.0 °F - 24.1 °F 39% 30.05 in 10.0 mi East 12.7 mph - N/A   Clear
7:53 PM 45.0 °F 38.5 °F 26.1 °F 48% 30.05 in 10.0 mi SE 13.8 mph - N/A   Clear
8:53 PM 41.0 °F 35.2 °F 28.0 °F 60% 30.06 in 10.0 mi SE 9.2 mph - N/A   Partly Cloudy
9:53 PM 39.9 °F 35.1 °F 26.1 °F 58% 30.04 in 10.0 mi ESE 6.9 mph - N/A   Mostly Cloudy
10:53 PM 41.0 °F 36.4 °F 24.1 °F 51% 30.00 in 10.0 mi South 6.9 mph - N/A   Overcast
11:53 PM 39.0 °F 32.3 °F 23.0 °F 53% 29.99 in 10.0 mi SSE 10.4 mph - N/A   Mostly Cloudy